Theta_e
281 281 281 280 280 280 280 280 280 280 280 280 279 279 279 279 279 279 279 279 279 279 278 279 278 278 278 278 277 277 277 277 277 277 277 277 277 277 277 277 277 277 277 277 278 278 278 278 278 278 279 279 279 280 280 280 281 281 282 282 281 282 282 281 280 280 283 286 285 285 287 287 286 288 286 287 287 288 289 289 290 289 289 289 290
281 280 280 280 280 279 279 279 279 279 278 278 278 278 278 278 278 278 277 277 278 278 278 278 277 277 277 277 276 276 276 276 276 276 276 276 276 276 276 276 276 276 276 276 277 277 277 277 277 278 279 278 279 279 279 279 280 279 280 280 280 280 282 280 279 279 279 282 283 285 285 286 284 287 286 286 286 287 287 288 289 290 289 288 288
280 280 280 279 278 278 278 278 277 278 277 277 277 277 277 277 277 276 276 276 276 277 276 276 276 276 275 275 275 275 275 275 275 275 275 275 274 275 275 275 275 275 275 275 276 276 276 277 277 277 278 277 278 278 279 279 279 279 279 280 279 280 280 281 279 278 278 279 282 282 282 284 284 284 286 286 286 287 286 287 287 288 289 289 288
280 279 278 278 277 277 277 277 277 277 277 277 276 276 276 275 275 275 274 274 274 275 274 274 274 274 273 273 273 273 273 273 273 274 274 274 274 274 274 274 274 274 275 275 275 276 275 275 276 276 276 276 276 277 278 278 278 278 278 279 279 279 280 280 280 279 278 278 280 281 282 282 282 284 285 286 285 285 286 286 287 287 287 288 288
279 279 278 277 276 277 276 277 276 276 276 276 275 274 274 274 274 273 273 273 273 273 272 273 272 272 272 272 272 272 272 272 272 272 272 273 273 273 273 273 274 274 274 274 275 275 275 274 275 275 275 275 275 276 276 276 277 277 277 278 278 279 279 279 279 279 278 277 278 280 281 281 282 283 283 283 283 284 285 285 285 285 286 287 288
279 278 277 277 276 276 276 276 276 275 275 274 273 273 272 272 272 272 272 271 271 271 271 271 271 271 271 271 271 271 271 271 271 271 271 271 272 272 273 273 273 273 274 274 274 274 274 274 274 274 274 274 274 275 275 275 275 276 276 277 278 278 278 279 279 279 279 278 278 278 280 279 280 281 282 283 282 282 283 284 285 285 285 285 286
278 277 277 276 276 276 275 275 275 274 273 273 272 271 271 270 270 270 270 270 269 269 269 269 270 270 270 269 269 269 269 270 270 270 270 271 272 272 273 273 273 273 273 273 273 273 273 273 273 273 273 273 273 273 274 275 275 276 277 277 278 278 277 278 279 278 278 278 278 279 279 280 280 279 281 283 282 282 281 281 281 284 285 284 284
277 276 276 276 275 275 274 274 273 273 272 271 270 270 269 269 268 269 268 268 268 268 268 268 268 268 268 268 268 268 268 269 269 269 270 271 272 272 273 272 272 272 273 273 273 273 273 273 273 273 273 274 274 274 275 274 275 275 276 276 276 276 276 276 277 276 276 276 277 277 278 278 279 280 281 281 280 280 282 281 280 281 282 284 285
276 275 275 275 274 274 273 273 272 271 270 269 268 268 267 267 267 267 267 267 267 267 267 267 267 266 267 267 267 267 267 267 268 269 271 272 272 272 272 272 272 272 272 272 272 272 273 273 273 273 273 275 276 276 276 276 275 274 275 275 275 275 275 275 275 275 275 275 275 277 277 277 278 278 278 279 278 278 281 281 280 281 282 282 283
275 274 274 273 273 271 271 270 270 269 268 267 266 266 266 266 266 265 265 265 265 266 265 266 266 265 265 266 266 266 266 266 267 271 273 272 272 272 272 272 272 272 271 271 271 272 272 272 272 273 273 273 273 274 274 275 276 275 274 274 273 273 273 273 273 274 274 274 274 275 275 275 277 278 278 279 280 281 280 280 279 281 281 281 282
274 273 273 272 270 270 269 268 268 267 266 266 265 264 265 264 264 264 264 264 264 264 264 264 264 265 264 264 264 265 265 265 269 272 273 274 273 272 272 272 272 271 271 271 270 270 271 271 270 271 271 271 271 273 274 275 275 275 275 276 276 274 273 272 273 273 273 273 274 274 274 274 275 277 278 279 280 280 280 280 280 280 279 278 277
273 272 271 270 269 268 268 267 266 265 265 264 264 263 263 263 263 263 262 263 263 263 263 263 263 264 264 264 264 264 264 266 269 271 272 274 274 273 272 271 271 271 271 270 270 269 269 269 269 270 270 270 271 271 272 273 274 274 275 275 276 277 277 274 273 272 272 272 272 273 274 274 275 276 276 277 277 278 279 279 279 279 278 278 279
271 270 269 268 267 267 266 265 265 264 263 263 262 262 261 262 261 261 261 262 262 262 263 262 262 263 263 262 262 263 263 266 269 271 272 274 274 274 272 272 271 270 270 269 268 268 268 268 268 269 269 271 270 270 270 270 272 273 274 274 274 275 275 277 277 274 274 272 271 271 272 273 273 273 275 275 276 273 274 274 275 276 278 278 279
270 269 267 267 266 266 265 264 263 263 262 262 262 261 261 261 261 261 261 261 261 261 261 261 262 262 262 262 262 262 262 264 269 271 272 273 274 274 272 271 270 268 268 268 268 268 268 268 268 268 269 269 269 270 270 270 270 270 271 271 271 272 274 275 275 276 275 273 272 271 273 274 273 274 275 276 275 273 273 273 275 274 275 275 277
268 267 266 266 265 264 264 263 262 262 262 261 261 261 260 260 261 261 260 261 261 260 260 260 260 260 260 261 261 261 261 266 269 271 272 273 274 273 271 269 268 268 268 268 268 268 268 268 268 268 268 269 269 270 270 270 270 270 270 270 271 272 272 273 273 273 274 274 274 274 274 275 275 275 276 277 276 276 277 276 276 277 277 278 279
267 266 265 265 264 264 263 262 262 261 261 260 260 260 260 260 260 260 260 260 260 260 260 260 259 259 260 260 260 260 261 266 268 270 271 272 273 270 269 269 268 268 267 268 268 268 269 269 268 268 268 269 271 273 273 272 271 271 270 271 271 272 273 275 277 277 276 275 275 274 275 276 278 277 278 278 279 279 279 279 279 278 277 276 275
266 265 264 264 264 264 263 262 261 261 260 259 259 259 260 259 259 259 259 259 259 259 259 259 259 259 259 259 259 259 260 263 267 269 271 272 271 269 269 268 268 268 268 268 268 269 269 269 269 269 269 269 271 275 275 275 272 271 272 271 272 272 272 274 276 278 278 278 279 279 280 280 280 280 280 281 279 278 277 275 274 275 274 273 274
266 265 264 263 263 263 263 261 260 260 259 258 258 260 259 259 258 259 258 258 258 258 258 258 258 259 258 258 259 258 259 262 267 269 270 271 271 269 268 268 268 268 268 268 269 269 269 270 271 270 270 270 273 275 276 275 273 272 272 271 271 271 272 273 274 274 277 278 279 279 279 280 280 280 280 280 280 279 275 272 274 274 272 272 271
265 264 264 263 263 262 261 261 260 259 258 259 258 258 258 258 258 258 258 257 257 258 258 257 257 258 258 258 260 260 259 261 265 267 269 271 270 269 269 268 268 268 268 268 269 269 269 270 272 272 272 273 276 277 277 276 273 273 272 272 271 271 272 274 273 273 273 273 273 274 275 276 276 275 275 278 279 278 276 275 275 273 271 271 272
265 264 263 262 261 261 260 259 259 258 258 258 257 257 257 256 257 257 257 257 257 257 257 257 256 257 258 258 258 259 259 259 261 267 269 270 272 270 269 269 268 268 268 268 268 269 269 270 271 274 275 276 277 277 277 277 274 274 273 272 271 271 274 274 274 274 273 273 273 274 274 275 275 275 275 276 276 277 277 276 276 275 273 273 273
263 263 262 261 260 259 259 258 257 257 257 257 257 257 256 257 257 256 255 256 256 256 256 256 256 257 257 258 258 259 259 259 260 267 269 270 272 271 270 270 270 269 269 268 269 269 270 271 271 274 276 276 277 277 277 277 277 275 274 273 274 274 276 274 275 276 274 274 274 274 274 274 274 274 274 274 274 274 275 275 275 274 273 272 271
263 261 261 260 259 258 256 256 257 255 255 255 255 255 256 255 256 255 255 255 254 255 255 256 256 256 257 258 258 258 259 261 261 265 269 270 272 273 271 271 271 271 270 270 270 270 271 271 272 273 276 276 277 277 278 279 278 275 275 277 278 278 276 275 275 274 273 273 272 272 272 272 272 272 272 272 273 273 273 274 274 274 275 274 273
261 261 260 258 257 256 255 255 255 254 254 255 254 254 254 254 254 254 254 254 254 254 255 255 255 256 256 257 258 258 259 260 264 265 269 271 272 273 274 273 275 273 271 270 271 271 272 272 272 275 276 277 277 277 277 278 277 275 278 278 278 278 276 274 273 272 271 271 270 270 270 270 270 270 271 271 272 273 273 273 274 274 274 274 275
260 259 257 256 255 255 253 253 253 253 253 253 253 252 253 253 253 254 254 254 254 254 255 255 255 255 255 256 258 260 260 261 264 268 268 271 273 274 274 275 275 273 273 272 272 272 272 272 273 276 277 277 278 278 278 277 275 277 277 277 277 276 272 270 269 269 268 268 267 267 268 269 269 269 269 270 271 272 272 272 272 273 273 273 274
258 256 255 254 254 253 252 252 251 252 252 253 253 254 253 252 253 253 253 253 254 254 254 254 254 254 255 256 259 261 263 265 266 268 270 271 272 273 274 275 275 276 273 273 273 272 274 276 276 276 276 276 276 276 275 274 275 275 275 275 273 269 268 268 267 267 266 266 266 267 267 268 269 269 270 271 271 272 271 271 272 272 272 272 272
257 256 254 253 253 252 252 252 252 252 252 253 253 253 253 253 254 254 254 254 253 254 254 254 254 255 255 257 260 262 264 266 266 267 268 269 270 272 274 275 275 275 274 272 274 274 274 274 275 274 273 272 271 269 269 269 272 272 272 270 267 267 267 266 266 266 265 266 266 266 267 268 269 270 271 271 271 270 270 270 270 270 271 271 270
257 256 255 255 254 252 252 253 253 252 252 253 253 253 254 253 253 254 254 253 253 253 254 254 254 255 256 259 261 263 264 265 266 267 267 267 268 270 272 272 273 273 271 270 270 270 270 271 270 271 270 270 269 269 268 268 266 266 266 266 266 266 266 266 266 266 266 266 266 267 268 269 270 270 270 270 270 270 271 271 270 270 270 271 270
258 257 257 256 255 253 253 254 255 254 253 252 253 253 253 253 253 254 254 254 253 254 254 254 255 257 258 260 261 263 263 264 266 266 267 268 270 271 272 271 270 270 268 268 269 268 266 267 265 263 263 263 263 264 264 265 265 265 265 265 265 265 266 267 267 266 266 267 267 268 268 269 268 269 269 269 270 270 271 270 270 270 270 270 269
258 257 255 253 253 253 253 253 253 253 253 252 252 253 253 253 254 254 255 255 256 255 256 257 258 259 260 261 262 261 264 266 266 270 270 273 271 271 270 270 270 268 269 271 265 262 261 260 260 260 260 261 261 261 262 262 262 262 262 262 263 263 263 264 263 264 265 265 265 266 267 267 268 269 269 269 269 270 271 271 271 270 270 270 269
256 255 254 253 252 252 253 252 251 252 252 252 252 252 256 260 259 257 257 261 265 266 265 260 260 261 261 262 263 264 266 267 271 273 273 273 274 274 273 273 272 269 270 269 263 258 258 258 258 258 259 259 259 259 259 259 259 259 260 262 262 261 262 262 263 263 264 265 265 266 266 267 267 268 269 269 270 270 271 272 271 271 270 269 269
256 255 254 253 253 252 252 252 252 251 252 252 251 253 253 255 261 265 266 266 267 268 269 271 271 271 269 267 269 271 271 271 271 272 272 273 273 273 272 272 271 270 270 264 258 257 257 256 257 258 258 258 258 258 258 258 258 259 259 260 260 261 261 262 262 263 264 264 265 266 267 267 268 268 269 269 270 270 271 272 271 271 270 269 269
257 256 254 254 255 255 254 254 253 253 253 253 253 253 252 252 254 260 263 264 266 267 268 269 269 270 270 270 268 267 269 270 271 271 272 273 272 271 271 270 269 269 268 265 257 256 256 256 256 257 257 257 257 258 258 258 258 258 259 259 259 260 261 261 263 263 263 264 264 265 267 268 269 269 270 270 270 271 271 271 271 270 270 270 270
255 255 254 254 254 255 254 254 253 253 252 252 251 251 252 252 252 253 256 261 263 265 266 267 267 267 268 268 269 269 269 269 270 271 272 271 271 270 270 268 267 267 266 259 255 255 256 256 256 256 257 256 257 257 257 258 258 258 258 258 259 260 261 262 263 263 263 264 265 265 266 267 268 268 269 270 270 270 270 270 270 271 270 270 270
254 254 253 253 253 253 253 253 253 253 253 253 252 253 253 253 252 252 252 253 255 259 262 263 265 266 266 267 267 268 268 269 269 270 271 270 270 269 267 262 264 264 262 257 256 255 255 255 256 256 256 256 257 257 257 257 258 258 258 259 260 261 261 262 262 262 263 264 265 265 266 266 267 266 267 268 270 270 270 270 271 270 270 270 270
252 254 254 254 253 253 254 255 254 252 253 252 252 253 253 253 253 253 252 252 252 253 254 255 258 262 262 264 265 267 267 268 269 270 270 268 268 267 264 256 256 256 256 254 255 255 255 255 255 256 256 256 256 257 257 257 258 258 258 259 259 261 261 262 262 263 264 264 264 264 265 265 265 266 266 267 267 268 269 270 271 271 271 272 272
253 253 254 255 254 254 254 253 254 253 253 252 252 252 252 252 253 253 253 253 253 252 253 254 254 258 262 264 265 265 266 267 268 269 268 267 266 264 255 254 254 254 254 255 255 255 256 255 255 255 256 256 257 257 257 257 258 258 259 259 260 260 261 261 263 263 264 264 264 264 265 264 265 265 266 266 267 267 268 269 270 272 273 273 273
253 253 254 254 254 254 253 252 251 253 255 254 253 252 253 253 253 252 252 252 252 252 252 253 253 253 257 256 257 262 265 266 267 267 266 264 263 257 253 253 253 254 254 254 255 255 255 255 255 255 256 256 256 257 257 257 258 258 260 260 261 261 261 263 264 264 263 263 263 264 264 264 264 265 265 265 266 267 268 269 270 271 272 273 274
253 253 254 252 253 252 251 252 251 254 254 254 254 253 253 252 251 252 252 252 252 253 252 252 254 253 252 253 257 257 258 263 265 264 261 259 255 254 253 253 253 253 253 254 254 254 254 255 255 255 255 256 256 257 257 257 258 259 260 260 261 262 264 264 263 263 263 263 263 263 264 264 264 264 265 265 265 266 267 268 269 269 271 272 273
251 254 255 256 256 253 251 252 252 251 251 252 251 252 252 251 251 251 251 250 251 251 251 251 251 251 252 252 252 255 257 259 259 257 255 254 253 253 252 252 252 252 253 253 253 254 254 254 255 255 255 256 256 256 257 258 258 259 260 261 262 263 263 263 263 263 263 263 263 264 264 264 264 264 265 265 265 266 266 267 268 268 269 270 272
252 252 254 257 256 257 256 254 253 252 251 250 250 249 250 251 251 250 250 248 250 250 250 251 251 252 252 251 252 255 257 259 258 255 253 253 252 252 251 252 252 252 252 252 253 253 253 253 254 254 255 255 255 256 257 257 258 259 260 261 262 262 263 263 263 263 263 263 263 263 263 263 264 264 265 265 265 266 266 266 267 268 269 270 271
251 254 253 256 256 254 253 252 252 251 249 250 249 249 250 250 250 250 250 250 250 250 251 251 251 252 252 255 260 262 261 257 254 253 252 252 252 251 251 251 252 251 252 252 252 252 252 253 253 254 254 254 255 256 256 257 258 259 260 261 262 263 263 264 264 264 264 264 263 263 263 263 264 264 264 265 267 266 266 266 267 267 268 269 271
250 249 250 250 252 251 249 250 249 252 250 250 249 248 250 250 249 250 250 250 251 251 251 251 251 251 254 258 261 263 260 253 251 251 251 251 251 251 251 251 251 251 251 251 251 251 252 252 253 253 253 254 254 255 256 256 257 258 260 261 262 262 263 263 264 264 264 264 263 263 263 263 264 264 264 266 265 265 265 265 266 267 267 268 269
249 248 249 249 248 248 249 249 248 246 247 247 248 250 251 250 249 249 250 250 251 250 251 251 251 251 252 257 257 259 255 251 251 251 250 251 251 251 251 251 251 251 251 251 251 251 251 251 252 253 253 253 254 254 255 255 257 258 260 261 262 262 263 263 264 264 264 263 263 263 263 263 263 263 264 264 264 265 265 265 265 266 266 267 268
248 249 249 248 248 248 248 247 247 248 247 250 250 249 249 249 249 248 249 248 249 249 250 250 251 251 251 252 254 252 250 250 249 249 249 251 251 251 251 251 250 250 250 250 251 251 251 251 251 252 252 253 254 254 255 256 257 258 260 261 262 262 263 263 264 264 264 263 263 263 262 263 263 263 263 264 264 264 264 264 265 265 266 266 267
246 247 247 246 246 245 246 247 247 247 249 249 247 247 249 248 248 247 249 249 250 250 250 250 251 250 251 251 250 250 250 249 250 250 250 250 250 250 250 250 250 250 250 250 250 250 250 250 250 251 251 252 253 253 254 255 257 258 260 261 261 262 263 264 264 265 265 263 263 262 262 262 262 262 263 263 264 263 264 264 264 265 265 266 267
246 246 247 246 246 247 246 244 247 246 246 246 247 246 246 246 247 247 248 249 249 250 250 250 250 250 250 250 250 250 249 248 249 249 250 250 250 250 250 250 250 250 250 250 250 250 250 250 250 251 251 251 252 252 253 254 256 258 259 261 262 263 264 265 266 266 265 264 263 262 262 262 262 262 263 263 263 263 263 264 264 265 265 266 266
245 245 246 246 246 247 247 247 246 245 244 245 246 246 247 246 247 248 249 250 250 250 250 250 249 249 249 249 248 248 249 249 249 249 249 249 249 249 249 249 249 249 249 250 249 250 249 250 250 250 250 251 251 251 252 254 255 257 259 260 261 263 264 265 266 266 265 264 262 261 260 260 261 261 262 262 263 263 263 263 263 263 264 264 264
245 245 245 246 246 245 246 245 246 249 247 247 247 247 248 248 248 249 248 249 249 250 250 249 249 248 248 248 248 248 248 248 248 249 249 249 249 249 248 248 248 249 249 249 249 249 250 249 249 249 250 250 251 251 252 253 254 255 257 259 260 262 263 264 266 266 266 264 261 259 259 259 260 260 261 261 261 261 261 261 262 263 263 263 263
245 245 245 246 246 247 246 246 247 246 247 246 247 248 248 248 248 249 249 249 249 249 248 248 248 247 247 247 248 248 248 248 248 248 248 248 248 248 248 248 249 249 249 249 249 249 249 249 249 250 249 250 250 250 251 252 253 254 255 257 259 261 262 264 266 266 265 263 260 259 258 258 258 259 260 260 260 260 261 261 261 261 261 262 262
245 246 245 246 247 247 246 246 247 246 247 247 248 247 248 248 248 248 249 248 248 248 247 247 247 246 247 247 247 247 246 247 247 248 248 248 248 248 248 248 247 248 248 248 249 249 249 249 248 249 249 250 250 250 251 252 252 253 254 255 258 260 262 265 266 266 265 263 259 258 257 258 258 258 259 259 259 258 259 260 260 261 260 260 260
246 246 246 247 247 247 247 246 247 248 247 248 248 248 248 248 249 249 248 248 247 247 247 246 246 245 246 246 247 247 247 247 247 247 248 248 248 248 248 248 248 248 248 248 248 248 248 248 249 249 249 250 250 250 251 251 251 252 254 257 259 262 264 265 266 266 264 262 257 258 258 257 257 257 258 259 259 258 259 260 260 259 259 259 259
Wind_Speed
5 6 5 5 6 6 6 5 7 6 7 7 7 6 5 5 5 4 4 6 5 6 6 6 6 6 7 7 8 8 8 9 8 7 7 7 7 7 7 8 8 7 7 7 5 6 7 8 8 8 8 9 8 8 8 8 9 8 8 8 9 8 8 10 13 16 12 6 10 10 8 8 9 7 11 9 8 7 7 7 7 7 7 6 7
6 6 5 5 6 6 6 6 6 6 7 6 7 5 5 5 5 5 6 5 5 6 6 5 5 6 6 6 7 6 7 7 7 7 8 8 8 6 8 10 10 10 9 9 9 7 8 9 9 9 8 9 9 9 9 9 9 9 9 8 9 10 7 9 12 13 18 10 9 9 9 6 12 8 7 11 9 8 9 9 8 7 7 6 5
6 5 6 6 7 6 7 6 6 6 7 6 6 6 5 5 5 5 5 5 5 5 5 5 5 5 5 6 6 6 6 7 7 7 7 8 8 8 8 9 10 10 11 11 11 11 11 11 11 10 8 11 10 9 9 10 9 10 11 9 10 11 10 9 11 15 16 16 10 11 9 9 10 11 8 9 11 9 10 8 7 8 7 6 6
5 6 6 7 6 7 6 5 6 6 6 5 6 5 5 5 5 5 4 4 4 4 5 5 5 6 5 5 6 6 7 7 7 6 7 8 8 9 9 9 9 9 10 11 11 11 12 12 12 12 12 13 12 10 9 9 9 10 11 11 11 12 11 10 11 12 14 16 14 10 10 10 11 11 9 8 9 9 9 10 8 9 9 7 7
6 6 8 8 5 6 5 5 6 6 6 5 5 5 5 4 4 4 4 4 5 4 4 5 5 5 5 6 6 6 6 7 7 7 6 6 7 8 9 9 9 9 10 10 10 11 12 11 13 13 13 13 13 11 11 13 11 11 12 11 11 11 11 11 11 11 14 16 16 12 10 11 10 12 10 12 12 11 9 8 8 8 9 8 8
6 7 6 8 6 6 5 5 6 5 5 5 5 4 4 5 4 4 5 4 4 4 5 5 5 5 5 6 6 6 6 6 6 7 7 7 7 8 8 8 9 9 10 10 10 10 11 12 12 12 12 13 13 14 13 15 14 13 13 12 12 12 13 13 12 13 14 16 16 17 12 13 13 10 10 10 12 13 11 9 8 6 7 8 6
6 6 6 7 6 5 5 5 4 5 4 4 4 4 4 4 4 4 4 4 4 4 5 5 5 5 5 6 6 6 7 6 6 7 7 8 8 9 9 9 9 9 9 10 10 10 11 11 11 11 12 12 13 14 14 15 13 15 14 13 13 13 14 13 13 13 14 16 16 15 15 13 11 14 9 8 11 13 14 12 12 9 9 7 8
6 7 7 6 5 5 4 4 4 5 4 4 4 4 4 4 4 4 4 4 5 5 6 5 5 5 5 5 6 6 6 6 7 7 7 8 9 9 10 10 11 10 11 11 11 11 11 11 11 11 11 12 12 13 13 13 13 14 13 13 13 14 14 14 14 14 15 15 15 16 13 14 12 12 11 12 11 11 9 9 13 13 9 6 6
7 7 7 7 5 4 4 4 4 4 4 4 4 4 4 4 4 4 4 4 4 5 5 5 5 5 5 5 5 5 5 5 5 7 9 10 9 10 10 10 11 11 11 11 11 11 11 10 10 10 13 17 20 17 16 16 13 13 13 13 14 14 14 13 13 13 13 14 16 14 15 14 13 13 12 10 10 11 10 10 13 13 12 12 10
8 7 7 6 5 4 4 4 4 4 3 4 4 3 3 4 4 4 4 4 4 4 4 4 4 5 5 5 5 5 5 4 7 14 13 10 10 9 10 10 10 11 11 11 11 11 11 10 11 16 18 18 19 20 20 20 20 16 15 14 14 13 13 14 14 13 14 15 15 15 15 15 13 12 13 13 12 13 13 12 13 13 13 13 13
7 8 7 5 5 4 4 4 3 3 3 3 3 3 4 3 3 3 3 3 4 4 4 4 4 4 5 5 6 5 5 5 13 14 14 15 11 10 10 10 10 11 11 11 11 11 11 11 11 13 14 15 14 18 19 20 19 20 21 21 18 14 13 14 14 13 13 15 15 16 16 18 17 14 13 13 11 10 10 11 11 12 13 12 14
8 7 6 5 4 4 4 4 3 3 3 3 3 3 2 2 2 3 3 3 3 3 3 3 4 4 4 5 5 5 6 9 14 15 15 15 14 10 9 9 9 9 10 10 10 11 12 11 11 10 10 12 13 14 16 18 19 19 19 19 19 21 20 16 15 14 13 14 15 15 15 16 17 15 13 12 12 12 12 13 13 12 13 13 12
8 7 5 5 4 4 4 3 2 2 2 3 2 2 2 1 1 2 2 3 3 3 3 4 4 4 5 5 6 6 6 10 14 15 15 16 16 13 9 9 9 8 10 11 11 11 11 11 11 10 10 16 14 13 13 14 16 19 19 19 19 19 19 21 21 17 14 15 15 17 15 15 16 13 12 13 14 15 14 14 13 13 13 14 13
7 7 6 4 4 4 4 3 3 3 3 3 2 2 2 1 1 2 2 2 2 3 3 4 4 4 5 6 6 6 8 10 15 16 15 16 15 14 9 8 7 9 10 10 10 11 11 11 11 11 11 12 12 14 14 13 14 14 13 14 14 16 19 21 21 23 20 15 15 17 16 14 17 17 16 15 15 14 14 15 14 15 15 17 19
7 7 6 5 4 3 4 3 3 3 3 3 2 2 1 1 2 2 2 3 4 4 4 4 4 4 5 5 6 7 7 14 15 16 16 16 16 14 8 8 8 8 10 10 11 11 12 11 12 12 13 13 12 15 16 15 14 12 12 12 12 13 14 14 14 13 13 12 14 16 17 17 18 19 16 14 14 14 13 15 15 15 15 16 16
8 7 7 5 5 5 4 3 3 3 3 2 2 1 1 1 2 2 2 3 2 3 3 3 5 5 5 6 6 7 8 14 16 16 17 16 17 9 7 8 8 9 10 11 11 11 11 11 12 13 13 13 16 23 21 17 14 14 15 13 12 12 12 13 19 19 18 17 16 16 15 17 21 20 18 16 14 13 13 13 12 12 13 13 14
9 8 6 6 6 5 5 4 3 3 2 2 1 1 1 2 2 1 2 3 4 3 4 4 4 5 5 5 7 7 7 11 16 17 17 18 13 8 8 8 8 11 11 11 11 11 11 12 13 12 13 14 18 24 24 23 15 14 14 13 11 11 12 12 20 25 27 27 28 29 28 27 26 26 26 26 19 16 13 13 12 9 12 14 14
9 8 8 6 6 5 4 4 4 3 2 1 0 1 1 1 2 1 3 4 4 4 4 4 4 4 5 6 6 8 7 11 16 17 17 17 15 10 9 9 10 9 9 11 11 12 14 21 20 17 17 17 23 25 25 21 14 13 14 14 14 12 12 11 10 12 22 27 28 29 29 28 29 29 28 26 24 19 13 14 11 10 14 14 15
10 10 8 6 5 5 4 4 4 3 2 1 1 2 2 2 2 2 3 3 4 4 4 5 4 4 4 6 10 10 8 10 15 17 18 17 13 9 9 9 9 8 9 11 11 10 11 13 20 19 18 20 26 26 27 23 16 15 15 14 15 14 12 12 12 12 10 10 11 14 15 19 18 15 14 22 24 21 15 14 12 13 15 15 14
9 7 7 7 5 5 5 5 4 4 3 2 2 3 2 2 2 2 3 2 3 3 4 4 5 4 4 5 6 7 8 7 10 18 17 17 17 11 9 9 8 9 10 11 12 11 11 10 12 19 24 25 26 27 27 29 20 15 12 12 13 13 10 10 11 11 11 11 11 11 12 11 11 11 12 12 13 13 15 14 13 12 13 14 13
9 8 7 6 6 6 4 5 5 3 3 3 2 1 2 2 3 3 3 2 3 4 5 5 4 5 4 5 5 6 6 8 9 17 17 17 17 15 9 10 9 8 8 8 7 9 13 11 8 16 25 26 27 28 28 29 27 18 14 11 11 16 19 13 12 14 9 8 8 8 8 9 9 10 11 11 11 12 13 14 14 14 14 14 15
9 7 7 6 6 6 5 3 4 3 3 2 2 2 2 2 2 3 2 3 5 6 5 4 4 5 4 4 5 6 8 12 10 14 17 17 16 18 11 10 12 12 12 11 14 14 12 11 11 17 26 27 27 28 30 29 30 16 12 20 25 26 17 13 10 8 9 10 12 12 12 11 11 11 10 10 10 11 12 13 13 14 14 14 14
8 7 7 7 6 6 4 5 4 3 2 3 2 3 2 2 3 3 3 3 5 7 6 5 5 6 4 3 4 6 6 7 14 12 15 16 17 17 19 16 19 13 12 10 9 9 10 14 16 25 26 27 28 29 28 29 21 14 23 25 25 26 20 8 9 10 11 11 12 12 12 11 11 12 12 12 12 13 13 13 14 14 15 15 17
7 7 6 6 6 5 4 3 3 3 3 2 2 3 3 3 3 3 3 3 4 5 4 4 5 6 6 5 4 5 6 7 10 14 13 17 17 19 19 20 20 13 12 12 13 14 13 13 13 25 27 28 28 27 27 25 18 23 24 25 26 22 10 9 8 9 10 11 12 12 12 12 12 12 12 12 12 13 14 14 15 15 16 16 16
8 7 6 6 5 4 3 3 3 3 3 3 3 3 3 2 3 2 2 2 3 4 6 3 4 6 6 7 7 6 6 6 6 9 16 16 18 19 20 21 20 21 13 9 10 12 19 26 27 26 26 26 26 23 18 19 23 24 25 24 21 9 10 9 10 10 11 11 11 12 13 13 13 14 14 15 16 16 15 14 13 14 14 15 16
8 7 6 6 6 4 3 3 2 3 3 3 3 3 3 3 3 3 2 3 3 4 5 4 5 5 6 6 7 7 7 6 7 7 8 12 14 18 20 20 19 20 19 15 20 23 23 23 24 23 20 18 13 11 11 13 21 23 21 18 10 9 8 9 10 10 10 11 12 13 13 13 13 13 14 13 12 14 12 13 12 13 11 12 15
8 7 7 6 4 5 4 4 3 2 3 3 3 3 3 3 3 3 3 3 3 3 4 3 4 5 5 6 7 7 7 7 7 6 7 8 9 9 10 9 16 18 13 11 14 13 15 16 15 19 16 20 18 15 14 14 12 11 9 8 8 8 8 8 9 10 11 11 12 12 12 12 12 12 12 11 13 13 11 12 13 13 14 13 14
8 8 8 6 5 6 5 4 4 3 3 3 3 3 3 4 4 5 5 4 4 4 4 4 5 6 6 7 7 9 8 6 6 8 8 7 7 9 7 8 10 9 10 11 11 12 12 13 13 9 9 8 8 7 7 7 8 9 9 9 9 9 11 14 13 9 9 10 11 12 12 12 12 12 12 12 12 12 10 11 11 14 13 12 13
6 6 4 5 5 4 4 4 4 3 3 3 3 4 4 3 5 5 6 5 7 7 6 7 7 7 6 7 8 8 6 7 8 12 12 16 14 11 9 10 9 8 12 16 10 9 8 8 8 9 8 9 9 8 8 8 9 9 10 10 9 9 9 8 9 10 11 11 11 12 12 12 12 12 12 11 11 10 8 8 9 10 12 11 14
6 5 5 5 4 4 4 4 3 4 3 3 3 4 7 11 9 7 7 11 16 18 15 9 9 8 8 9 9 8 5 7 15 18 17 18 18 18 16 17 16 13 14 14 9 5 6 7 7 8 9 9 9 9 10 9 10 10 9 10 9 8 9 9 9 10 11 11 11 12 12 12 12 11 11 12 13 11 10 12 13 11 11 11 12
5 5 6 6 6 4 4 4 3 3 3 3 2 4 6 7 10 13 14 13 14 15 16 18 18 16 11 7 5 12 15 16 16 16 17 17 17 16 16 16 16 15 14 9 6 4 5 7 7 7 7 7 7 8 9 10 10 10 11 11 9 9 10 9 9 10 11 11 12 11 12 11 12 11 11 11 12 12 12 9 7 9 12 13 13
7 7 6 5 6 6 4 4 3 3 3 3 3 3 3 6 10 7 6 8 11 13 14 14 14 12 11 9 8 6 10 14 15 15 16 16 15 15 15 14 15 14 12 11 4 4 4 6 7 7 8 8 8 8 8 8 9 9 10 12 11 10 10 10 11 11 11 11 11 12 12 12 12 12 12 12 12 12 12 13 13 13 12 12 12
6 5 5 5 4 5 4 4 3 3 3 3 3 3 4 3 4 9 9 7 8 13 14 10 7 8 10 11 12 11 11 12 14 15 15 13 14 13 13 13 12 12 11 6 3 5 4 6 6 7 7 8 9 8 8 8 8 9 8 9 10 11 11 10 12 11 11 11 12 12 12 13 13 13 13 13 12 12 12 13 12 12 12 11 12
6 5 5 6 6 4 4 3 4 3 3 3 3 4 3 4 4 3 5 10 8 4 4 7 10 12 11 12 12 11 11 12 13 13 13 12 13 13 11 7 7 7 9 4 4 6 6 6 6 7 7 7 8 8 8 8 8 8 9 9 9 10 10 10 9 10 10 11 11 12 12 12 12 13 13 13 13 12 12 12 12 12 11 11 11
5 5 6 5 4 4 3 3 4 3 3 3 3 3 4 3 3 3 4 4 5 8 8 6 8 11 10 10 11 12 11 12 12 12 10 11 11 12 9 6 5 4 5 2 3 4 6 7 7 7 7 7 7 7 8 8 8 8 8 10 9 9 9 10 10 10 10 11 12 12 12 13 13 12 12 12 13 13 13 13 12 11 11 12 11
6 5 4 4 4 3 3 4 3 3 3 3 3 3 4 4 5 4 4 5 5 6 8 7 4 7 15 14 12 12 12 12 11 10 9 9 10 10 5 5 4 4 5 4 4 6 6 7 7 7 7 7 7 7 8 8 9 8 8 9 10 10 10 10 10 11 12 12 12 13 13 12 12 12 12 12 13 13 12 13 14 14 14 12 11
6 5 3 3 4 4 4 3 3 3 4 4 4 3 4 5 5 4 5 5 5 5 6 7 6 6 6 6 8 11 13 13 11 8 8 8 8 5 1 2 3 5 6 4 5 5 6 6 6 6 7 7 7 8 8 8 8 9 9 9 9 9 9 9 11 12 12 12 12 12 12 12 12 12 12 13 12 12 12 13 13 15 15 15 14
6 6 5 4 5 4 3 3 3 5 4 3 4 4 5 4 4 4 6 5 5 6 6 6 4 5 7 6 7 6 8 12 10 7 6 5 4 2 2 2 3 4 6 5 5 6 6 6 6 6 7 7 8 8 8 8 8 8 9 9 8 8 15 13 12 9 9 9 11 12 12 12 12 12 12 12 12 12 12 12 12 14 15 15 11
4 5 7 8 6 5 4 3 4 4 4 4 4 5 6 4 4 5 5 5 5 6 6 6 6 6 6 4 4 6 8 5 4 5 6 5 3 2 3 3 4 4 4 5 5 6 5 6 7 6 7 6 7 7 7 8 8 8 9 9 9 9 10 8 10 7 9 10 12 12 11 12 11 11 11 11 12 12 12 13 13 13 13 13 12
4 4 5 8 5 5 5 5 5 5 6 4 5 4 5 5 5 5 5 4 6 5 5 6 7 7 4 2 4 4 5 6 4 3 4 5 4 4 3 4 4 4 5 5 5 5 5 5 6 7 7 6 6 7 7 8 8 9 9 9 9 10 10 10 10 10 10 11 10 10 11 11 11 11 11 10 10 11 12 12 12 12 12 12 12
4 4 4 5 5 5 4 4 4 5 4 4 4 4 6 6 5 6 5 6 6 5 6 7 7 7 5 8 12 12 6 1 2 3 4 4 4 4 4 4 5 5 4 4 5 4 5 5 6 6 6 6 6 7 7 8 8 8 9 9 9 10 10 10 9 9 10 10 10 10 10 11 11 11 12 12 13 12 10 10 11 11 11 11 11
5 4 4 4 4 3 4 5 6 5 4 5 5 5 6 6 5 5 6 5 7 6 6 7 7 6 8 15 13 13 4 1 2 5 4 3 4 4 5 5 5 5 6 6 5 5 5 5 5 5 6 6 7 7 8 8 8 8 9 9 10 11 11 11 10 11 10 10 11 11 11 11 12 12 12 12 11 10 10 9 10 10 10 10 9
5 4 4 4 4 5 5 5 3 3 4 4 5 5 5 5 5 6 6 7 6 6 6 7 7 5 6 10 10 10 3 3 4 4 4 4 4 4 5 5 5 5 6 6 6 5 5 5 5 5 5 6 6 6 7 8 9 9 9 10 10 11 10 11 12 11 9 9 10 12 12 11 11 10 10 11 10 10 9 9 9 9 9 9 8
4 4 5 4 5 3 4 3 3 4 3 5 4 6 5 5 5 5 5 5 5 5 6 6 6 6 6 6 6 5 4 5 4 4 5 5 5 5 5 5 5 5 5 5 5 4 5 5 5 5 6 5 6 7 7 8 8 9 10 10 10 12 11 11 12 10 8 8 11 13 12 11 11 10 10 11 10 10 10 9 9 9 9 8 8
4 5 4 4 4 4 4 2 3 3 5 5 4 4 6 4 5 4 5 6 7 6 6 6 5 5 7 6 5 5 6 5 6 6 5 5 5 6 5 6 5 6 6 6 4 5 4 5 5 6 8 6 6 6 7 7 8 8 9 10 10 11 11 11 12 11 10 9 9 11 10 10 10 9 9 10 10 10 9 9 8 9 9 8 8
6 5 5 4 4 5 4 3 5 3 4 5 5 6 5 5 5 5 6 6 6 5 5 5 5 5 6 6 6 6 6 5 6 5 6 5 5 6 5 5 6 6 6 6 6 6 5 5 5 6 7 8 8 7 7 8 8 8 9 8 9 10 10 11 11 10 9 8 8 9 9 9 9 9 10 9 9 9 9 9 8 8 7 8 8
4 5 3 4 3 5 5 4 2 3 3 5 4 4 5 5 5 6 6 6 6 6 6 5 5 5 6 6 6 6 6 6 5 5 6 6 6 6 6 6 6 6 7 6 5 6 6 6 5 6 7 7 8 9 8 7 7 8 8 8 9 10 10 11 12 11 9 8 8 7 8 8 8 8 9 8 8 8 9 8 8 8 7 7 7
5 4 4 4 2 3 3 2 3 5 5 6 4 5 6 6 5 6 6 6 6 6 5 5 5 6 6 6 6 6 6 6 5 6 6 6 6 6 6 6 7 7 6 7 6 5 5 6 6 6 6 7 7 7 7 7 7 8 8 8 9 9 14 18 12 11 8 8 7 6 6 6 6 6 7 8 7 7 7 8 8 7 7 6 6
5 4 3 3 4 4 5 5 6 5 5 4 4 5 6 5 5 5 5 5 5 5 5 5 6 5 5 6 6 6 6 7 6 6 6 6 6 6 6 6 7 7 6 7 7 6 6 6 6 6 6 7 7 7 7 7 7 7 8 8 11 19 22 22 16 10 10 8 6 6 6 6 6 7 7 6 7 6 5 6 5 6 7 7 6
4 4 4 4 4 5 5 5 5 5 5 5 5 5 5 5 5 5 5 5 5 5 5 5 6 6 6 5 7 6 5 5 6 6 6 6 6 6 6 7 7 7 6 7 7 7 6 6 6 6 6 7 7 7 7 7 7 7 8 9 17 22 22 20 18 12 9 5 6 4 5 5 6 6 5 6 6 7 7 6 5 6 4 5 5
5 4 5 5 5 4 5 4 5 5 5 5 5 5 5 5 5 5 5 5 6 6 5 5 5 5 6 6 7 6 6 6 6 6 6 7 6 6 6 6 7 7 7 7 7 6 6 6 6 7 6 6 7 7 7 7 7 8 12 18 21 21 20 18 13 11 10 7 4 5 5 6 6 7 6 6 6 6 8 7 6 5 4 4 4
Wind_Direction
152 150 139 141 134 122 119 113 93 84 76 70 75 66 60 53 49 46 36 36 22 20 20 16 11 8 4 6 6 2 2 359 359 355 353 349 349 342 339 340 334 329 326 321 319 316 314 310 309 306 303 302 303 305 303 300 298 293 291 289 285 282 279 277 277 283 283 243 267 285 291 303 288 274 286 287 286 280 274 273 267 249 252 264 273
165 159 159 134 119 110 96 85 77 75 78 70 70 66 56 49 41 37 40 24 21 16 16 10 8 3 5 4 3 1 359 357 352 352 348 344 342 345 340 339 335 330 331 327 330 328 319 314 313 313 309 303 303 301 301 300 297 294 290 290 288 287 279 280 280 281 288 290 279 278 281 270 280 281 283 293 289 289 285 284 279 258 255 255 250
158 141 126 113 92 81 80 73 80 81 79 71 69 59 54 48 38 40 31 19 14 18 12 9 4 2 6 3 2 360 357 353 350 347 343 341 337 336 336 333 330 328 328 326 328 326 324 322 320 323 320 313 306 301 298 295 291 289 288 286 285 284 282 274 279 283 286 288 287 287 286 284 279 291 287 285 289 290 285 274 273 277 268 256 254
143 120 101 86 87 86 82 88 83 79 76 73 73 61 56 50 41 41 30 14 19 15 14 8 8 7 5 6 3 360 356 350 346 345 340 338 335 330 330 329 324 322 320 321 325 325 323 322 322 326 322 316 311 310 304 298 296 294 290 287 283 282 280 276 269 275 285 289 289 285 289 289 285 285 286 274 274 276 276 281 273 267 268 267 259
130 121 113 104 93 90 89 86 86 82 83 79 74 66 56 50 38 34 25 16 18 12 9 8 10 8 6 4 358 358 352 343 340 338 335 333 330 325 322 320 319 318 318 318 319 321 319 318 317 320 319 314 311 312 312 309 305 300 293 292 288 285 283 279 276 273 278 280 287 286 285 281 277 280 281 286 283 272 262 259 273 270 267 254 264
148 129 120 110 102 99 101 94 90 92 94 88 79 68 58 45 35 27 27 11 16 11 11 10 6 5 2 3 355 352 346 340 334 331 331 331 325 321 317 316 315 315 314 315 317 317 314 313 314 315 314 311 308 308 309 307 306 300 297 296 295 291 289 285 281 278 275 277 282 289 286 287 289 275 275 276 284 287 282 269 259 248 265 268 237
132 122 113 112 111 104 102 101 105 103 95 88 78 66 55 45 35 31 20 17 19 11 9 10 3 6 358 359 354 350 341 335 333 333 332 329 325 323 323 318 316 316 314 314 313 311 309 308 306 307 304 304 303 305 307 305 303 301 300 302 300 298 295 293 292 289 285 285 284 281 286 284 280 285 282 279 279 280 288 295 287 262 248 252 274
125 120 117 107 107 110 106 109 99 93 90 84 74 63 55 41 34 25 27 19 20 13 5 0 360 360 356 353 349 344 336 331 333 330 327 327 325 324 323 322 320 319 318 317 317 314 311 308 306 304 304 303 302 302 302 301 302 299 299 300 298 297 296 295 294 292 290 288 284 287 285 286 283 275 280 285 280 275 271 278 284 290 283 264 253
121 117 108 109 114 118 112 96 90 89 83 81 68 56 47 38 27 29 24 21 14 8 359 355 354 354 351 348 344 338 329 326 331 327 327 327 326 321 319 317 316 315 315 314 313 311 310 309 305 307 308 306 304 303 301 302 302 301 301 302 301 299 295 291 291 292 290 288 288 285 286 285 284 288 288 282 278 281 290 287 283 284 291 291 276
123 117 113 119 117 104 93 89 88 87 81 76 67 52 48 31 28 26 17 14 4 359 352 352 355 345 344 337 339 329 318 317 313 318 321 319 318 315 311 310 311 310 309 308 307 306 306 305 305 305 305 306 306 305 304 302 299 296 297 300 299 297 296 296 293 292 291 289 286 290 290 286 288 291 291 288 285 284 283 282 282 287 289 287 286
119 121 123 122 116 107 100 98 96 92 85 81 67 53 41 27 29 20 10 2 354 355 343 347 348 338 337 333 328 323 308 306 313 318 317 315 312 309 307 306 305 304 301 303 304 307 308 307 305 304 303 303 303 302 302 302 302 302 299 298 297 295 295 293 288 286 284 281 284 286 285 289 290 294 295 300 300 294 290 293 293 295 292 294 290
124 122 124 126 118 114 113 113 105 102 93 78 71 61 48 34 28 13 353 350 344 338 334 341 330 333 328 328 321 312 305 306 315 314 312 311 311 309 306 302 301 300 302 303 304 304 303 303 301 300 299 300 302 303 302 302 301 302 302 300 299 296 293 293 296 296 295 294 291 287 291 290 296 295 294 296 298 299 301 298 292 286 284 283 283
127 125 129 124 122 121 124 124 125 119 101 105 90 87 80 41 34 353 344 325 315 327 332 329 323 327 324 322 316 308 297 304 309 309 309 311 311 310 303 300 298 304 304 301 297 296 297 299 300 299 299 302 302 300 299 299 300 300 301 305 306 304 300 296 292 290 292 288 286 286 284 296 296 296 307 309 313 307 306 299 301 301 298 292 286
131 135 135 137 138 135 135 139 144 141 140 122 114 98 90 36 353 321 322 321 326 321 318 318 320 320 320 315 308 302 297 300 307 309 310 309 309 310 303 308 310 301 295 294 293 293 295 296 298 298 298 299 298 298 297 295 295 296 295 292 290 289 291 291 292 290 287 283 284 284 288 285 283 290 295 296 295 290 287 283 282 279 278 276 280
137 148 150 149 143 146 151 158 161 158 143 121 103 81 61 346 338 334 335 324 323 317 315 309 305 307 306 306 302 297 290 303 309 310 310 311 310 314 309 302 296 295 296 293 291 292 291 290 292 292 292 287 283 288 294 294 292 282 273 269 268 270 273 271 270 270 273 278 279 280 283 282 281 283 283 280 274 274 276 276 275 270 269 270 268
152 150 155 163 161 162 163 164 163 146 125 100 87 34 2 328 323 321 314 299 282 288 286 288 295 301 300 298 296 293 292 307 311 311 311 313 315 315 303 292 292 297 296 293 291 288 286 286 285 281 273 274 277 289 292 293 290 281 274 267 264 263 260 259 272 275 278 279 279 279 280 281 282 284 285 285 280 279 277 277 274 272 273 270 264
171 170 168 168 170 168 163 156 155 142 125 108 99 295 322 305 306 293 295 293 295 290 282 286 292 293 294 291 293 292 291 304 308 311 313 314 316 303 298 292 289 294 294 297 294 287 283 278 272 271 277 278 278 289 294 294 285 278 278 273 266 261 263 260 265 270 276 277 277 279 281 283 285 287 289 290 289 292 296 295 294 306 296 289 283
175 173 172 168 164 161 156 151 153 140 133 131 169 281 273 281 271 263 284 293 291 280 290 287 277 279 286 288 289 292 292 303 308 311 312 311 310 306 299 290 280 267 277 293 292 282 267 268 275 282 284 284 286 288 290 293 286 281 275 274 273 265 264 259 257 254 262 268 272 276 277 279 281 285 289 292 292 292 288 283 292 294 282 281 286
177 176 169 157 153 152 154 154 147 146 145 178 187 228 253 252 262 266 254 262 273 284 283 285 279 276 271 279 296 297 293 298 305 307 307 308 308 301 295 289 275 268 269 281 274 261 262 263 274 285 291 291 292 293 293 292 287 280 279 277 276 267 266 258 264 264 256 252 254 257 263 267 270 272 272 275 278 281 279 281 285 278 278 279 280
168 144 141 147 151 153 156 154 151 151 169 180 203 222 245 253 255 271 277 275 281 284 283 278 285 283 282 283 284 289 290 288 295 302 305 305 306 302 297 288 276 276 278 277 282 277 269 266 267 280 292 294 295 296 294 290 286 280 275 272 272 277 271 267 267 265 262 261 261 259 262 260 260 257 258 264 269 272 274 274 274 273 276 280 281
148 149 144 147 152 155 159 157 154 168 169 187 203 234 237 262 276 268 277 283 280 289 282 283 283 287 289 287 284 284 277 284 288 301 305 306 305 304 295 289 280 274 267 260 258 284 294 279 262 285 299 297 295 294 292 289 289 289 286 278 274 274 282 281 279 283 295 298 291 284 279 277 275 275 277 274 272 272 273 273 273 274 274 275 275
147 149 155 158 159 160 159 155 156 166 173 163 182 238 242 244 262 266 270 282 290 289 291 291 293 292 293 283 277 275 277 282 284 291 298 304 305 305 303 297 299 299 298 295 292 287 279 284 286 293 297 297 293 290 290 292 297 302 295 296 295 299 305 305 309 311 300 296 294 291 288 282 280 277 271 270 270 271 272 273 272 270 268 268 268
153 156 156 160 166 165 164 160 167 158 170 180 188 233 250 256 259 257 263 280 282 292 291 299 302 303 301 291 276 268 266 267 280 284 295 307 307 309 308 306 306 304 297 280 277 290 297 296 294 292 293 294 293 295 301 306 313 309 308 305 306 308 314 323 321 314 307 301 297 292 290 285 282 283 283 283 283 281 279 276 275 274 272 269 268
154 157 166 169 162 169 171 165 166 172 176 179 189 225 251 252 257 243 258 263 280 287 293 302 306 306 310 304 282 274 271 271 275 288 303 310 314 314 312 309 308 303 299 300 300 295 290 283 283 296 304 307 309 310 310 310 307 309 308 308 311 321 334 330 325 312 304 297 293 290 287 286 287 286 286 287 289 289 285 283 279 277 275 276 273
157 168 173 173 173 174 155 171 176 190 196 175 196 213 247 231 260 256 256 274 268 278 289 292 293 298 301 298 303 305 305 298 295 304 313 314 315 314 313 312 312 312 311 305 310 307 306 309 311 310 309 310 310 314 316 314 311 309 311 315 325 334 327 319 313 309 301 296 292 288 287 287 284 284 283 285 285 284 280 276 272 269 270 268 267
167 177 178 175 184 158 170 205 202 207 209 193 197 205 213 228 238 269 249 257 253 260 277 283 284 284 283 288 298 306 298 299 301 297 308 307 302 299 302 312 317 322 322 316 312 312 311 312 315 317 316 319 326 327 319 315 312 315 319 323 322 316 314 312 307 305 297 295 293 289 289 290 288 287 284 284 281 278 274 274 274 272 263 269 277
169 173 184 182 170 163 175 208 212 211 204 211 205 207 210 206 225 249 245 245 254 246 262 265 274 272 269 285 295 299 304 303 291 301 306 296 292 296 293 309 329 327 325 324 321 315 319 324 321 323 329 325 323 320 318 317 317 317 316 315 313 313 313 309 308 306 304 299 296 294 294 293 291 288 285 285 283 280 274 274 274 274 275 274 275
177 184 183 180 180 177 183 196 202 211 209 187 215 228 224 213 212 229 226 223 215 245 234 246 251 263 267 278 281 294 297 272 304 311 293 279 290 305 318 337 330 336 335 323 330 340 335 332 335 337 329 326 322 315 313 315 317 320 322 325 323 320 316 312 307 298 295 296 293 294 292 294 290 287 283 279 276 275 268 267 266 274 271 270 269
181 180 176 169 193 177 185 196 198 202 231 228 230 218 218 219 229 242 236 217 228 235 252 247 244 241 241 260 280 281 266 301 306 301 306 314 314 318 335 331 336 347 330 339 357 348 340 335 331 333 336 336 336 333 333 331 326 321 318 318 320 321 320 321 320 315 310 306 300 297 296 293 289 285 279 273 269 268 265 261 256 262 269 262 263
177 195 183 189 189 185 196 200 200 202 210 231 262 282 242 238 234 231 251 244 245 244 235 224 227 237 245 251 235 247 287 299 305 310 313 312 316 325 328 330 337 338 336 4 11 344 331 334 335 334 335 337 334 334 331 329 323 319 315 317 316 314 316 315 311 307 306 303 298 295 291 289 284 281 276 274 277 271 265 268 272 267 266 266 269
185 195 189 201 194 190 190 197 205 196 210 212 236 261 309 293 277 271 271 270 268 269 270 273 280 281 276 270 278 295 297 302 307 309 310 313 321 329 330 338 343 339 343 8 6 346 332 333 329 322 324 323 322 323 322 321 320 318 318 321 318 317 315 310 307 309 308 304 300 293 289 285 279 274 271 274 276 278 284 269 255 265 265 264 265
189 197 191 196 191 189 180 186 187 195 205 214 218 237 264 303 308 288 269 278 284 282 279 282 280 277 282 289 297 299 297 298 304 309 309 317 325 329 335 349 344 339 347 11 346 326 330 326 320 321 321 321 319 319 318 315 314 315 316 318 317 317 317 312 314 314 310 307 305 305 305 305 306 304 298 291 286 284 285 286 284 279 270 263 258
190 187 187 185 183 182 184 184 197 195 214 214 226 221 236 251 275 309 318 314 296 285 285 277 290 306 308 305 298 295 297 303 307 309 313 322 330 331 343 359 343 345 354 359 329 321 317 321 312 314 320 318 318 315 312 310 308 308 307 304 306 310 309 305 308 305 306 305 308 308 311 310 309 309 308 303 299 291 286 281 280 275 271 265 265
191 183 183 185 178 186 186 191 193 203 203 201 216 223 239 230 244 263 299 323 327 308 267 310 326 327 318 308 305 304 303 306 309 308 319 331 333 336 358 357 341 0 358 335 317 319 317 315 316 317 315 309 306 307 304 306 306 303 301 299 297 300 301 306 308 306 300 308 315 313 311 309 310 310 308 309 306 298 284 279 279 274 272 265 261
182 187 179 174 183 186 183 190 192 196 193 210 216 228 236 240 237 243 252 263 275 291 301 305 315 311 308 310 304 304 309 309 309 312 328 342 339 351 10 10 360 338 345 319 304 306 312 313 309 306 306 305 305 304 302 304 305 305 304 306 302 300 309 313 310 304 312 320 316 313 311 311 310 307 307 308 310 310 307 300 291 277 270 273 275
180 180 190 189 184 182 187 194 199 198 205 222 216 223 221 228 239 240 248 251 260 274 282 287 295 307 306 306 311 314 311 311 308 316 344 351 351 14 11 353 339 318 313 306 304 312 298 293 297 300 303 299 300 301 302 304 304 304 303 303 307 308 310 309 312 322 324 319 313 311 311 309 308 307 306 304 304 305 304 305 302 300 293 281 273
181 189 178 184 183 193 194 189 197 204 222 215 219 228 230 235 239 240 245 254 261 258 265 289 307 302 295 295 299 308 312 311 307 317 351 355 7 32 14 288 281 301 300 304 307 298 297 296 300 295 299 299 304 303 304 303 301 304 302 303 302 305 303 306 321 322 316 313 314 312 311 310 310 309 308 307 305 304 304 304 306 304 304 299 298
188 185 187 177 176 183 189 196 209 221 226 228 221 223 236 237 241 244 251 257 255 263 276 278 278 289 298 290 313 305 302 303 306 319 343 354 5 359 326 293 296 294 298 297 300 301 297 301 302 302 302 302 301 306 304 304 304 305 305 304 304 305 314 314 314 307 302 303 316 316 315 312 311 310 309 307 305 304 304 307 309 309 305 302 299
185 195 197 199 197 184 188 197 210 214 225 226 227 228 237 244 250 251 249 251 260 268 265 274 275 268 264 272 290 299 310 290 309 315 318 320 315 309 304 306 291 279 280 286 293 296 294 299 305 302 302 302 302 302 303 303 307 307 306 306 306 309 317 313 315 309 315 316 319 320 317 314 313 311 309 305 304 305 307 308 308 306 304 303 301
176 191 208 210 215 214 180 187 200 205 215 214 229 220 238 244 247 247 250 249 258 258 259 266 269 263 265 261 268 265 255 279 295 297 298 301 306 309 308 292 283 274 281 288 289 290 292 292 298 304 303 302 302 302 304 306 307 306 307 308 313 315 317 316 315 319 321 320 315 314 315 313 311 307 306 307 307 311 313 310 306 304 302 300 300
187 183 182 217 206 212 220 208 214 220 217 221 225 226 233 240 239 237 238 249 253 257 261 260 263 269 268 269 277 278 275 195 286 277 268 268 273 284 285 268 269 279 277 275 281 284 285 290 298 301 303 300 302 303 306 307 306 306 306 309 311 316 315 313 312 314 320 320 318 313 312 314 311 313 314 315 315 313 306 305 303 304 304 304 306
182 186 198 205 218 198 197 220 219 223 217 222 229 228 234 236 236 235 243 248 249 253 264 264 267 267 274 281 285 293 311 77 288 278 272 254 258 259 261 261 259 260 271 273 275 283 287 292 292 300 302 305 307 307 308 307 308 308 307 309 317 322 320 317 320 324 323 321 320 317 317 316 316 315 313 312 309 309 311 309 309 306 307 309 310
180 194 198 196 197 206 213 224 210 213 233 232 241 239 239 233 233 239 246 247 249 252 256 269 277 277 278 286 293 302 325 306 272 269 267 272 268 265 261 259 257 255 261 267 267 263 272 282 288 289 291 295 298 299 304 302 304 305 306 309 315 318 318 322 325 323 321 319 319 317 314 314 315 315 315 313 310 311 310 311 311 315 314 314 316
185 194 195 200 204 208 212 205 219 223 224 233 237 238 235 236 241 241 240 250 252 253 256 262 270 282 284 288 294 301 286 278 266 262 263 272 275 275 274 268 273 270 271 269 270 267 272 279 282 286 284 281 287 289 288 291 296 299 305 308 311 319 322 321 325 323 323 322 322 321 319 315 314 315 315 316 319 318 319 321 324 323 322 321 325
182 188 195 201 205 204 225 213 218 228 240 243 251 251 249 244 246 242 242 251 254 254 254 256 262 269 278 282 278 274 277 275 274 275 277 275 278 277 280 284 285 287 288 285 279 282 281 283 286 291 296 293 292 291 290 291 293 295 299 306 305 310 316 318 323 323 324 319 315 317 317 316 316 318 318 321 323 322 321 325 323 327 333 335 339
185 191 196 202 208 215 219 221 218 224 235 241 247 256 253 246 245 246 249 248 249 252 253 256 255 259 263 273 275 272 272 274 274 270 274 278 275 279 280 284 287 286 284 284 289 288 282 281 286 289 295 296 301 296 296 294 296 297 298 298 301 302 312 321 322 317 320 319 317 317 315 315 316 315 322 326 327 330 327 329 333 340 339 342 351
182 186 200 199 207 217 221 215 209 223 233 243 241 247 252 244 238 242 241 243 246 245 250 254 254 257 260 263 267 270 269 267 269 277 273 275 278 278 284 285 287 287 286 284 282 284 283 279 278 280 287 291 295 296 296 297 300 300 299 300 299 305 313 322 321 323 323 323 320 313 313 311 314 315 321 327 329 335 336 337 338 342 344 354 353
186 188 197 201 203 220 232 217 235 249 241 240 240 242 244 246 245 243 245 246 251 253 256 258 256 258 260 262 260 262 265 265 267 267 275 275 276 278 280 282 282 281 286 288 285 279 279 281 280 282 284 288 290 293 295 297 296 299 300 300 299 300 309 313 320 325 328 330 324 316 309 307 310 313 320 326 330 330 339 344 340 343 348 347 357
181 189 199 202 209 220 222 225 229 231 236 239 246 251 248 251 250 249 248 249 250 251 246 254 259 257 253 258 262 263 261 266 270 273 270 270 272 274 275 274 275 278 281 283 284 284 282 283 283 282 283 285 286 287 290 291 294 296 298 298 298 303 308 313 318 323 334 333 325 322 316 317 320 324 325 332 333 329 333 345 347 346 348 353 351
189 196 199 208 216 225 220 219 227 233 236 235 238 248 248 246 251 251 250 249 252 253 251 247 252 253 254 264 262 262 262 264 266 269 270 271 270 268 271 273 274 275 275 278 282 285 285 284 287 285 284 285 285 284 286 285 288 289 293 294 298 300 304 314 316 325 346 341 335 321 319 318 323 324 330 334 338 340 342 345 345 350 352 355 355
197 200 204 209 216 220 219 224 235 232 232 232 233 239 247 246 249 251 249 248 251 255 254 248 249 254 253 250 254 261 265 265 263 264 268 270 271 271 268 270 274 277 278 277 279 281 283 288 287 288 287 285 289 288 288 287 286 285 288 293 299 304 309 315 318 329 351 356 341 333 334 335 337 341 342 338 348 349 349 347 351 354 353 352 353